Weather History for Oshkosh, WI

Change the Weather History Date:

Tuesday, July 2, 2013

  Actual Average Record
Temperature  
Mean Temperature 68 °F -  
Max Temperature 75 °F 80 °F 96 °F (2012)
Min Temperature 62 °F 59 °F 44 °F (2005)
Cooling Degree Days 2    
Growing Degree Days 18 (Base 50)    
Moisture  
Dew Point 47 °F    
Average Humidity 51    
Maximum Humidity 72    
Minimum Humidity 29    
Precipitation  
Precipitation 0.00 in - - ()
Sea Level Pressure  
Sea Level Pressure 30.09 in    
Wind  
Wind Speed 8 mph (ENE)    
Max Wind Speed 12 mph    
Max Gust Speed -    
Visibility 10 miles    
Events Rain    
Averages and records for this station are not official NWS values.
T = Trace of Precipitation, MM = Missing Value Source: NWS Daily Summary

Daily Weather History Graph

Daily Weather History Graph

Search for Another Location

Airport:

Trip Planner

Search our weather history database for the weather conditions in past years. The results will help you decide how hot, cold, wet, or windy it might be!

Date:

Astronomy

Jul. 02, 2013 Rise Set
Actual Time 5:15 AM CDT 8:40 PM CDT
Civil Twilight 4:39 AM CDT 9:16 PM CDT
Nautical Twilight 3:52 AM CDT 10:03 PM CDT
Astronomical Twilight 2:53 AM CDT 11:02 PM CDT
Moon 1:24 AM CDT (7/2) 3:49 PM CDT (7/2)
Length of Visible Light 16h 36m
Length of Day
15h 24m
Waning Crescent, 26% of the Moon is Illuminated
Jul 2
Waning Crescent
Jul 8
New
Jul 15
First Quarter
Jul 22
Full
Jul 29
Last Quarter

Hourly Weather History & Observations

Time (CDT) Temp. Dew Point Humidity Pressure Visibility Wind Dir Wind Speed Gust Speed Precip Events Conditions
12:53 AM 66.0 °F 51.1 °F 59% 30.10 in 10.0 mi NE 6.9 mph - N/A   Partly Cloudy
1:53 AM 64.9 °F 51.1 °F 61% 30.10 in 10.0 mi ENE 11.5 mph - N/A   Scattered Clouds
2:53 AM 64.0 °F 52.0 °F 65% 30.09 in 10.0 mi ENE 5.8 mph - N/A   Clear
3:53 AM 62.1 °F 53.1 °F 72% 30.09 in 10.0 mi ENE 5.8 mph - N/A   Clear
4:53 AM 62.1 °F 53.1 °F 72% 30.10 in 10.0 mi ENE 4.6 mph - N/A   Clear
5:53 AM 62.1 °F 53.1 °F 72% 30.11 in 10.0 mi East 4.6 mph - N/A   Clear
6:53 AM 63.0 °F 53.1 °F 70% 30.12 in 10.0 mi ENE 4.6 mph - N/A   Clear
7:53 AM 64.9 °F 50.0 °F 58% 30.12 in 10.0 mi ENE 8.1 mph - N/A   Clear
9:53 AM 68.0 °F 48.0 °F 49% 30.12 in 10.0 mi NE 9.2 mph - N/A   Clear
10:53 AM 71.1 °F 43.0 °F 36% 30.12 in 10.0 mi ENE 10.4 mph - N/A   Clear
11:53 AM 72.0 °F 45.0 °F 38% 30.11 in 10.0 mi NE 10.4 mph - N/A   Clear
12:53 PM 73.0 °F 44.1 °F 35% 30.11 in 10.0 mi NE 11.5 mph - N/A   Clear
1:53 PM 73.0 °F 43.0 °F 34% 30.09 in 10.0 mi ENE 11.5 mph - N/A   Clear
2:53 PM 73.0 °F 39.0 °F 29% 30.09 in 10.0 mi ENE 10.4 mph - N/A   Clear
3:53 PM 73.9 °F 43.0 °F 33% 30.08 in 10.0 mi ENE 8.1 mph - N/A   Clear
4:53 PM 73.0 °F 42.1 °F 33% 30.07 in 10.0 mi ENE 8.1 mph - N/A   Clear
5:53 PM 70.0 °F 44.1 °F 39% 30.08 in 10.0 mi East 11.5 mph - N/A   Scattered Clouds
6:53 PM 69.1 °F 43.0 °F 39% 30.08 in 10.0 mi ESE 10.4 mph - N/A   Overcast
7:53 PM 66.0 °F 45.0 °F 47% 30.08 in 10.0 mi ESE 10.4 mph - N/A   Overcast
8:53 PM 63.0 °F 46.9 °F 56% 30.08 in 10.0 mi SSE 4.6 mph - 0.00 in Rain Light Rain
9:53 PM 62.1 °F 48.9 °F 62% 30.09 in 10.0 mi Calm Calm - 0.00 in   Overcast
10:53 PM 64.0 °F 46.9 °F 54% 30.07 in 10.0 mi SE 4.6 mph - N/A   Overcast
11:53 PM 63.0 °F 48.9 °F 60% 30.08 in 10.0 mi Calm Calm - N/A   Overcast